This is the latest recevied weather packets stored in our database for station/object IU1INZ-13. If no packets are shown the sender has not sent any weather packets the latest 10 day(s).
| Time | Temp. | Humidity | Pressure | Rain* | Wind** | Luminosity | Snow |
|---|---|---|---|---|---|---|---|
| 1777625134 | 13.33° C | 51% | 1028.9 hPa | 0 mm | - | - | - |
| 1777624242 | 12.78° C | 50% | 1028.7 hPa | 0 mm | - | - | - |
| 1777623334 | 12.78° C | 51% | 1028.7 hPa | 0 mm | - | - | - |
| 1777622430 | 12.78° C | 50% | 1028.6 hPa | 0 mm | - | - | - |
| 1777621532 | 12.78° C | 55% | 1028.5 hPa | 0 mm | - | - | - |
| 1777620632 | 12.78° C | 58% | 1028.5 hPa | 0 mm | - | - | - |
| 1777619735 | 12.22° C | 60% | 1028.2 hPa | 0 mm | - | - | - |
| 1777618840 | 12.22° C | 64% | 1028 hPa | 0 mm | - | - | - |
| 1777617941 | 11.67° C | 64% | 1028.1 hPa | 0 mm | - | - | - |
| 1777617036 | 12.22° C | 64% | 1027.8 hPa | 0 mm | - | - | - |
| 1777616139 | 12.22° C | 64% | 1027.7 hPa | 0 mm | - | - | - |
| 1777615241 | 11.67° C | 64% | 1027.8 hPa | 0 mm | - | - | - |
| 1777614335 | 11.67° C | 68% | 1027.6 hPa | 0 mm | - | - | - |
| 1777613439 | 11.67° C | 64% | 1027.3 hPa | 0 mm | - | - | - |
| 1777612537 | 11.67° C | 65% | 1027 hPa | 0 mm | - | - | - |
| 1777611641 | 11.67° C | 70% | 1026.8 hPa | 0 mm | - | - | - |
| 1777610734 | 11.67° C | 68% | 1026.8 hPa | 0 mm | - | - | - |
| 1777609855 | 11.67° C | 68% | 1026.6 hPa | 0 mm | - | - | - |
| 1777608935 | 11.67° C | 70% | 1026.7 hPa | 0 mm | - | - | - |
| 1777608033 | 11.67° C | 69% | 1026.6 hPa | 0 mm | - | - | - |
| 1777607145 | 11.67° C | 70% | 1026.4 hPa | 0 mm | - | - | - |
| 1777606249 | 11.67° C | 70% | 1026.4 hPa | 0 mm | - | - | - |
| 1777605334 | 11.67° C | 69% | 1026.4 hPa | 0 mm | - | - | - |
| 1777604432 | 12.22° C | 68% | 1026.3 hPa | 0 mm | - | - | - |
| 1777603534 | 12.22° C | 68% | 1026.3 hPa | 0 mm | - | - | - |
* Rain latest hour (hover to see other rain measurements)
** Current wind speed in m/s (hover to see current wind gust speed)